Location: Ahausen
(50.4985°N, 8.2722°E)
Time: 00:22:10
(UTC+00:00)

OBJECT-B - Pass Details

Date: 18 September 2020
Orbit: 421 x 433 km, 97.0° (Epoch: 09 October)

Event Time Altitude Azimuth Distance (km) Brightness Sun altitude
Exits shadow 20:34:37 15° 263° (W) 1,266 3.6 -27.2°
Maximum altitude 20:34:54 15° 269° (W) 1,261 3.7 -27.2°
Drops below altitude 10° 20:36:49 10° 306° (NW) 1,521 4.5 -27.4°
Sets 20:39:32 0° 331° (NNW) 2,395 5.7 -27.7°
